| time (UTC) | temp F | wind direction | speed knots | gust knots | rain 1hr in | rain 24hr in | rain mn in | humidity % | barometer mb |
| 20260507064506 | 33 | 4 | 1.7 | 7.0 | 0.00 | 0.18 | 0.00 | 81 | 1031.0 |
| 20260507063055 | 33 | 4 | 4.3 | 7.8 | 0.00 | 0.18 | 0.00 | 82 | 1031.0 |
| 20260507061506 | 33 | 4 | 3.5 | 12.2 | 0.00 | 0.18 | 0.00 | 84 | 1030.8 |
| 20260507060056 | 33 | 8 | 2.6 | 10.4 | 0.00 | 0.18 | 0.00 | 85 | 1030.8 |
| 20260507054534 | 33 | 4 | 2.6 | 7.0 | 0.00 | 0.18 | 0.18 | 86 | 1030.6 |
| 20260507053115 | 33 | 4 | 1.7 | 7.8 | 0.00 | 0.18 | 0.18 | 87 | 1030.6 |
| 20260507051535 | 32 | 4 | 1.7 | 7.0 | 0.00 | 0.18 | 0.18 | 89 | 1030.5 |
| 20260507050129 | 32 | 4 | 1.7 | 7.8 | 0.00 | 0.18 | 0.18 | 89 | 1030.6 |
| 20260507044554 | 31 | 4 | 2.6 | 7.0 | 0.00 | 0.18 | 0.18 | 90 | 1030.6 |
| 20260507043001 | 30 | 4 | 3.5 | 7.0 | 0.00 | 0.18 | 0.18 | 91 | 1030.6 |
| 20260507041601 | 30 | 4 | 4.3 | 7.8 | 0.00 | 0.18 | 0.18 | 91 | 1030.5 |
| 20260507040025 | 30 | 8 | 3.5 | 5.2 | 0.00 | 0.18 | 0.18 | 92 | 1030.6 |
| 20260507034621 | 29 | 4 | 0.9 | 5.2 | 0.00 | 0.18 | 0.18 | 92 | 1030.7 |
| 20260507033044 | 29 | 4 | 1.7 | 3.5 | 0.00 | 0.18 | 0.18 | 92 | 1030.6 |
| 20260507031625 | 29 | 4 | 0.0 | 2.6 | 0.00 | 0.18 | 0.18 | 92 | 1030.5 |
| 20260507030035 | 29 | 4 | 2.6 | 4.3 | 0.00 | 0.18 | 0.18 | 92 | 1030.3 |
| 20260507024613 | 28 | 4 | 0.9 | 3.5 | 0.00 | 0.19 | 0.18 | 92 | 1030.2 |
| 20260507023034 | 28 | 4 | 3.5 | 4.3 | 0.00 | 0.19 | 0.18 | 93 | 1030.0 |
| 20260507021543 | 28 | 8 | 1.7 | 3.5 | 0.00 | 0.19 | 0.18 | 92 | 1030.1 |
| 20260507020120 | 28 | 4 | 0.9 | 2.6 | 0.00 | 0.19 | 0.18 | 92 | 1030.0 |
| 20260507014541 | 29 | 4 | 0.0 | 0.0 | 0.00 | 0.21 | 0.18 | 92 | 1030.0 |
| 20260507013130 | 29 | 4 | 0.9 | 1.7 | 0.00 | 0.21 | 0.18 | 92 | 1030.2 |
| 20260507011540 | 29 | 4 | 0.0 | 2.6 | 0.01 | 0.21 | 0.18 | 92 | 1030.4 |
| 20260507010121 | 30 | 4 | 0.9 | 3.5 | 0.01 | 0.21 | 0.18 | 92 | 1030.2 |
| 20260507004536 | 30 | 4 | 0.0 | 3.5 | 0.02 | 0.24 | 0.18 | 92 | 1030.1 |
| 20260507003128 | 30 | 4 | 1.7 | 3.5 | 0.02 | 0.24 | 0.18 | 92 | 1030.2 |
| 20260507001551 | 30 | 4 | 0.0 | 1.7 | 0.02 | 0.23 | 0.17 | 92 | 1030.4 |
| 20260507000013 | 30 | 4 | 0.0 | 2.6 | 0.03 | 0.23 | 0.17 | 92 | 1030.4 |
| 20260506234627 | 30 | 4 | 0.9 | 4.3 | 0.03 | 0.25 | 0.16 | 92 | 1030.3 |
| 20260506233027 | 30 | 4 | 0.0 | 0.0 | 0.03 | 0.24 | 0.15 | 92 | 1030.3 |
| 20260506231619 | 30 | 4 | 0.0 | 0.9 | 0.04 | 0.24 | 0.15 | 92 | 1030.0 |
| 20260506230034 | 30 | 4 | 0.9 | 3.5 | 0.04 | 0.23 | 0.14 | 92 | 1029.6 |
| 20260506224625 | 30 | 4 | 0.0 | 4.3 | 0.04 | 0.22 | 0.13 | 92 | 1029.6 |
| 20260506223040 | 30 | 4 | 1.7 | 5.2 | 0.04 | 0.21 | 0.12 | 92 | 1029.4 |
| 20260506221631 | 30 | 4 | 3.5 | 7.0 | 0.04 | 0.20 | 0.11 | 93 | 1029.4 |
| 20260506220052 | 30 | 4 | 5.2 | 9.6 | 0.04 | 0.19 | 0.10 | 93 | 1029.1 |
| 20260506214508 | 30 | 4 | 3.5 | 8.7 | 0.02 | 0.17 | 0.08 | 93 | 1029.2 |
| 20260506213107 | 30 | 4 | 3.5 | 8.7 | 0.03 | 0.17 | 0.08 | 93 | 1029.0 |
| 20260506211516 | 29 | 4 | 6.1 | 11.3 | 0.03 | 0.16 | 0.07 | 93 | 1029.0 |
| 20260506210111 | 30 | 4 | 3.5 | 8.7 | 0.02 | 0.15 | 0.06 | 93 | 1029.1 |
| 20260506204547 | 29 | 4 | 4.3 | 9.6 | 0.02 | 0.15 | 0.06 | 93 | 1029.0 |
| 20260506203129 | 29 | 4 | 6.1 | 11.3 | 0.02 | 0.14 | 0.05 | 93 | 1028.5 |
| 20260506201544 | 29 | 4 | 7.8 | 12.2 | 0.01 | 0.13 | 0.04 | 93 | 1028.3 |
| 20260506200011 | 28 | 4 | 5.2 | 8.7 | 0.01 | 0.13 | 0.04 | 93 | 1028.3 |
| 20260506194622 | 27 | 4 | 4.3 | 9.6 | 0.01 | 0.13 | 0.04 | 93 | 1028.4 |
| 20260506193018 | 27 | 4 | 7.8 | 12.2 | 0.00 | 0.12 | 0.03 | 93 | 1028.2 |
| 20260506191611 | 27 | 359 | 5.2 | 11.3 | 0.00 | 0.12 | 0.03 | 93 | 1028.4 |
| 20260506190026 | 27 | 4 | 7.0 | 11.3 | 0.00 | 0.12 | 0.03 | 93 | 1027.5 |
| 20260506184624 | 27 | 4 | 7.8 | 13.0 | 0.00 | 0.12 | 0.03 | 93 | 1027.5 |
| 20260506183100 | 27 | 8 | 9.6 | 16.5 | 0.01 | 0.12 | 0.03 | 93 | 1027.3 |
| 20260506181509 | 27 | 4 | 11.3 | 17.4 | 0.01 | 0.12 | 0.03 | 93 | 1027.0 |
| 20260506180056 | 27 | 4 | 13.0 | 19.1 | 0.02 | 0.12 | 0.03 | 93 | 1026.6 |
| 20260506174508 | 28 | 4 | 11.3 | 18.2 | 0.02 | 0.12 | 0.03 | 92 | 1026.4 |
| 20260506173112 | 28 | 4 | 9.6 | 16.5 | 0.02 | 0.11 | 0.02 | 92 | 1026.6 |
| 20260506171533 | 28 | 4 | 9.6 | 14.8 | 0.02 | 0.11 | 0.02 | 92 | 1026.6 |
| 20260506170116 | 28 | 8 | 7.8 | 13.0 | 0.01 | 0.10 | 0.01 | 92 | 1026.0 |
| 20260506164531 | 29 | 4 | 6.1 | 8.7 | 0.01 | 0.10 | 0.01 | 92 | 1025.8 |
| 20260506163122 | 29 | 4 | 2.6 | 8.7 | 0.00 | 0.09 | 0.00 | 92 | 1025.5 |
| 20260506161538 | 29 | 8 | 7.0 | 9.6 | 0.00 | 0.09 | 0.00 | 92 | 1025.4 |
| 20260506160104 | 28 | 10 | 5.2 | 11.3 | 0.00 | 0.09 | 0.00 | 92 | 1025.2 |
| 20260506154512 | 28 | 4 | 6.1 | 11.3 | 0.00 | 0.09 | 0.00 | 92 | 1025.1 |
| 20260506153045 | 28 | 4 | 3.5 | 7.8 | 0.00 | 0.09 | 0.00 | 93 | 1024.9 |
| 20260506151559 | 27 | 8 | 7.0 | 10.4 | 0.00 | 0.09 | 0.00 | 92 | 1024.9 |
| 20260506150040 | 27 | 8 | 7.0 | 11.3 | 0.00 | 0.09 | 0.00 | 92 | 1025.0 |
| 20260506144539 | 27 | 4 | 6.1 | 14.8 | 0.00 | 0.09 | 0.00 | 92 | 1024.7 |
| 20260506143045 | 27 | 4 | 10.4 | 16.5 | 0.00 | 0.09 | 0.00 | 92 | 1024.6 |
| 20260506141533 | 27 | 4 | 12.2 | 18.2 | 0.00 | 0.09 | 0.00 | 92 | 1024.1 |
| 20260506140036 | 27 | 359 | 11.3 | 19.1 | 0.00 | 0.09 | 0.00 | 92 | 1023.9 |
| 20260506134528 | 27 | 4 | 10.4 | 17.4 | 0.00 | 0.09 | 0.00 | 92 | 1023.8 |
| 20260506133027 | 27 | 4 | 9.6 | 17.4 | 0.00 | 0.09 | 0.00 | 92 | 1023.5 |
| 20260506131526 | 27 | 4 | 12.2 | 19.1 | 0.00 | 0.09 | 0.00 | 91 | 1023.3 |
| 20260506130018 | 28 | 4 | 8.7 | 13.9 | 0.00 | 0.09 | 0.00 | 91 | 1022.8 |
| 20260506124515 | 28 | 4 | 6.1 | 11.3 | 0.00 | 0.09 | 0.00 | 91 | 1022.2 |
| 20260506123012 | 28 | 8 | 4.3 | 13.9 | 0.00 | 0.09 | 0.00 | 91 | 1022.1 |
| 20260506121509 | 28 | 4 | 0.0 | 0.0 | 0.00 | 0.09 | 0.00 | 91 | 1021.9 |
| 20260506120007 | 28 | 4 | 0.0 | 0.0 | 0.00 | 0.09 | 0.00 | 92 | 1021.5 |
| 20260506114505 | 28 | 4 | 0.0 | 0.0 | 0.00 | 0.09 | 0.00 | 92 | 1021.3 |
| 20260506113104 | 28 | 4 | 0.0 | 0.0 | 0.00 | 0.09 | 0.00 | 92 | 1021.0 |
| 20260506111517 | 28 | 4 | 0.0 | 0.0 | 0.00 | 0.09 | 0.00 | 92 | 1021.1 |
| 20260506110109 | 28 | 4 | 0.0 | 0.0 | 0.00 | 0.09 | 0.00 | 92 | 1021.1 |
| 20260506104528 | 29 | 8 | 0.0 | 0.0 | 0.00 | 0.09 | 0.00 | 92 | 1020.9 |
| 20260506103115 | 29 | 4 | 0.0 | 0.0 | 0.00 | 0.09 | 0.00 | 92 | 1020.7 |
| 20260506101546 | 29 | 8 | 0.0 | 0.0 | 0.00 | 0.09 | 0.00 | 92 | 1020.7 |
| 20260506100132 | 29 | 8 | 0.0 | 0.0 | 0.00 | 0.09 | 0.00 | 92 | 1020.6 |
| 20260506094553 | 29 | 4 | 0.0 | 0.0 | 0.00 | 0.09 | 0.00 | 92 | 1020.6 |
| 20260506093014 | 29 | 4 | 0.0 | 0.0 | 0.00 | 0.09 | 0.00 | 92 | 1020.4 |
| 20260506091611 | 29 | 8 | 0.0 | 0.0 | 0.00 | 0.09 | 0.00 | 92 | 1020.2 |
| 20260506090028 | 30 | 4 | 0.0 | 0.0 | 0.00 | 0.09 | 0.00 | 92 | 1020.1 |
| 20260506084621 | 30 | 4 | 0.0 | 0.0 | 0.00 | 0.09 | 0.00 | 92 | 1020.0 |
| 20260506083026 | 30 | 8 | 0.0 | 0.0 | 0.00 | 0.09 | 0.00 | 92 | 1019.8 |
| 20260506081621 | 30 | 8 | 0.0 | 0.0 | 0.00 | 0.09 | 0.00 | 92 | 1019.8 |
| 20260506073107 | 30 | 4 | 0.0 | 0.0 | 0.00 | 0.09 | 0.00 | 92 | 1019.7 |
| 20260506071525 | 30 | 8 | 0.0 | 0.0 | 0.00 | 0.09 | 0.00 | 92 | 1019.7 |
| 20260506070119 | 30 | 4 | 0.0 | 0.0 | 0.00 | 0.09 | 0.00 | 92 | 1019.6 |